Location: Newark
(37.9500°N, 13.4167°E)
Time: 02:25:48
(UTC+00:00)

Hubble Space Telescope - Visible Passes

Search period start: 27 January 2020 00:00
Search period end: 06 February 2020 00:00
Orbit: 536 x 540 km, 28.5° (Epoch: 25 January)

Date Brightness Start Highest point End Pass type
(mag) Time Alt. Az. Time Alt. Az. Time Alt. Az.
30 Jan 3.3 05:37:47 10° SSW 05:40:30 17° SSE 05:43:13 10° SE visible
31 Jan 3.1 05:26:52 10° SW 05:29:46 19° S 05:32:41 10° SE visible
01 Feb 3.7 03:39:16 10° SSE 03:39:16 10° SSE 03:39:36 10° SE visible
01 Feb 2.9 05:16:01 10° SW 05:19:04 20° S 05:22:06 10° SE visible
02 Feb 3.7 03:29:25 11° SE 03:29:25 11° SE 03:29:41 10° SE visible
02 Feb 2.8 05:05:13 10° SW 05:08:21 21° S 05:11:29 10° SE visible
03 Feb 2.7 04:54:50 12° SW 04:57:38 22° S 05:00:49 10° SE visible
04 Feb 2.6 04:44:52 15° SW 04:46:56 22° S 04:50:07 10° SE visible
05 Feb 2.5 04:34:52 18° SSW 04:36:13 21° S 04:39:22 10° SE visible
